003  
FPUS83 KFGF 271831  
OPUFGF  
PRAIRIE TO PINES WEATHER ROUNDUP  
NATIONAL WEATHER SERVICE EASTERN NORTH DAKOTA/GRAND FORKS ND  
100 PM CDT THU APR 27 2017  
 
**SATELLITE DATA USED TO AUGMENT SKY COVER AT AUTOMATED STATIONS**  
***** WEATHER ACROSS EASTERN NORTH DAKOTA *****  
 
CITY SKY/WX TMP DP RH WIND PRES REMARKS  
GRAND FORKS PTSUNNY 38 26 62 N16 29.69F  
6HR MIN TEMP: 22; 6HR MAX TEMP: 38; 6HR PCP: TRACE;  
 
GRAND FORKS AF FAIR 36 24 61 N14 29.69F  
GRAND CITY NWS NOT AVBL  
BUXTON N/A 35 26 69 N12 N/A  
DEVILS LAKE FAIR 42 25 50 N18G26 29.71F  
6HR MIN TEMP: 27; 6HR MAX TEMP: 42;  
 
FARGO FAIR 32 24 72 N17 29.70S WCI 21  
6HR MIN TEMP: 26; 6HR MAX TEMP: 32; 6HR PCP: TRACE;  
 
WAHPETON ARPT CLOUDY 32 23 69 NW16G24 29.69S WCI 21  

 
 
***** WEATHER ACROSS CENTRAL AND WESTERN NORTH DAKOTA *****  
 
CITY SKY/WX TMP DP RH WIND PRES REMARKS  
JAMESTOWN FAIR 43 27 53 N18 29.68F  
6HR MIN TEMP: 29; 6HR MAX TEMP: 43;  
 
BISMARCK FAIR 48 25 40 NE13 29.73F  
6HR MIN TEMP: 31; 6HR MAX TEMP: 48;  
 
MINOT FAIR 45 19 35 N10 29.75F  
6HR MIN TEMP: 22; 6HR MAX TEMP: 46;  
 
MINOT AFB FAIR 45 19 36 NE13 29.74F  
6HR MIN TEMP: 24; 6HR MAX TEMP: 44;  
 
GARRISON NOT AVBL  
WILLISTON FAIR 48 21 34 VRB7 29.74F  
6HR MIN TEMP: 27; 6HR MAX TEMP: 48;  
 
DICKINSON FAIR 41 24 51 NE8 29.69S  
6HR MIN TEMP: 19; 6HR MAX TEMP: 42;  
 
HETTINGER FAIR 40 27 59 E9 29.70F  
6HR MIN TEMP: 24; 6HR MAX TEMP: 41;  
 

 
 
***** OTHER OBSERVATIONS NORTHEAST NORTH DAKOTA *****  
 
CITY SKY/WX TMP DP RH WIND PRES REMARKS  
WALHALLA NOT AVBL  
LANGDON FAIR 46 27 46 N20G30 29.69S  
CAVALIER CLOUDY 43 27 52 N20G28 29.68F  
GRAFTON CLOUDY 39 27 60 N17G24 29.70F  
CANDO NOT AVBL  
FORT TOTTEN N/A 43 26 51 N7 29.95S  
ROLLA FAIR 43 23 45 N17G25 29.73F  
RUGBY NOT AVBL  
***** THE ABOVE OBSERVATIONS ARE NON NWS ARE NOT QUALITY  
CONTROLLED AND MAY MIS-REPORT RAIN FOR SNOW...  

 
 
***** OTHER OBSERVATIONS SOUTHEAST NORTH DAKOTA *****  
 
CITY SKY/WX TMP DP RH WIND PRES REMARKS  
COOPERSTOWN FAIR 41 30 65 N20G29 29.69S  
VALLEY CITY MIX PCPN 39 28 65 N13G20 29.70F  
OAKES NOT AVBL  
GWINNER PTCLDY 34 27 75 MISG 29.71S  
SHEYENNE NWR N/A 33 21 62 N10 29.95 WCI 25  
BUFFALO N/A 36 23 58 SE12 N/A  
WYNDMERE N/A 34 27 75 N20 N/A WCI 22  
***** THE ABOVE OBSERVATIONS ARE NON NWS ARE NOT QUALITY  
CONTROLLED AND MAY MIS-REPORT RAIN FOR SNOW...  

 
 
***** WEATHER ACROSS NORTHERN MINNESOTA *****  
 
CITY SKY/WX TMP DP RH WIND PRES REMARKS  
FLAG ISLAND CLOUDY 27 21 80 N18G29 29.64F WCI 13  
WARROAD CLOUDY 28 25 86 N8 29.66S FOG WCI 20  
ROSEAU CLOUDY 30 25 80 N15 29.65F WCI 19  
HALLOCK FAIR 39 25 56 N15G23 29.67F  
THF RVR FALLS CLOUDY 31 23 72 N16 29.67S WCI 20  
6HR MIN TEMP: 24; 6HR MAX TEMP: 31; 6HR PCP: TRACE;  
 
HALSTAD N/A 32 23 70 N20 N/A WCI 20  
FOSSTON CLOUDY 30 19 64 N16G22 29.64S WCI 19  
BAUDETTE CLOUDY 27 18 69 N13 29.61F WCI 16  
6HR MIN TEMP: 22; 6HR MAX TEMP: 27; 6HR PCP: TRACE;  
 
WASKISH CLOUDY 27 19 74 NW13G18 29.61S WCI 16  
CROOKSTON CLOUDY 30 25 80 N14 29.69F WCI 20  

 
***** WEATHER ACROSS CENTRAL AND WEST MINNESOTA *****  
 
CITY SKY/WX TMP DP RH WIND PRES REMARKS  
BEMIDJI CLOUDY 26 20 77 N13G20 29.60S WCI 15  
PARK RAPIDS CLOUDY 28 18 66 N16 29.59S WCI 16  
6HR MIN TEMP: 24; 6HR MAX TEMP: 28; 6HR PCP: TRACE;  
 
WADENA CLOUDY 27 21 80 NW9 29.61S WCI 17  
DETROIT LAKES PTSUNNY 30 23 74 N15 29.64F WCI 19  
MOORHEAD CLOUDY 30 25 80 N9 29.70S WCI 22  
FERGUS FALLS CLOUDY 28 23 80 N17 29.67S WCI 16  
ELBOW LAKE CLOUDY 29 22 74 N16 29.66R WCI 18  
6HR MIN TEMP: 28; 6HR MAX TEMP: 30;  
 
MORRIS MN PTSUNNY 32 25 74 N21G29 29.65S WCI 20  
STAPLES CLOUDY 27 21 80 N7 29.61S WCI 19  
WHEATON CLOUDY 32 21 64 NW17G24 29.71S WCI 21  

 
***** WEATHER ELSEWHERE ACROSS MINNESOTA *****  
 
CITY SKY/WX TMP DP RH WIND PRES REMARKS  
DULUTH CLOUDY 26 20 77 NW13 29.48S WCI 15  
6HR MIN TEMP: 23; 6HR MAX TEMP: 26;  
 
INTRNTL FALLS LGT SNOW 26 17 68 N15 29.57F WCI 14  
6HR MIN TEMP: 21; 6HR MAX TEMP: 26; 6HR PCP: TRACE;  
 
ELY FLURRIES 25 16 68 NW8G17 29.48R WCI 16  
CLOQUET CLOUDY 27 19 74 NW13 29.52R WCI 16  
BRAINERD CLOUDY 27 20 75 N14 29.59S WCI 16  
6HR MIN TEMP: 25; 6HR MAX TEMP: 27;  
 
HIBBING CLOUDY 26 18 71 NW16 29.51F WCI 14  
6HR MIN TEMP: 20; 6HR MAX TEMP: 26;  
 
ALEXANDRIA CLOUDY 29 22 75 N14 29.63R WCI 18  
6HR MIN TEMP: 26; 6HR MAX TEMP: 29;  
 
SAINT CLOUD CLOUDY 31 24 75 NW16 29.60S WCI 20  
6HR MIN TEMP: 29; 6HR MAX TEMP: 32;  
 
MINNEAPOLIS CLOUDY 34 25 69 NW15 29.58S WCI 24  
6HR MIN TEMP: 32; 6HR MAX TEMP: 35; 6HR PCP: 0.01;  
 

 
 
***** WEATHER ACROSS SOUTH DAKOTA *****  
 
CITY SKY/WX TMP DP RH WIND PRES REMARKS  
SIOUX FALLS PTSUNNY 40 30 67 NW15G23 29.69F  
6HR MIN TEMP: 31; 6HR MAX TEMP: 40;  
 
BROOKINGS CLOUDY 35 26 69 NW16 29.67F  
WATERTOWN CLOUDY 35 25 66 NW17G24 29.67S WCI 25  
6HR MIN TEMP: 27; 6HR MAX TEMP: 33;  
 
HURON CLOUDY 40 28 62 NW10G23 29.72F  
6HR MIN TEMP: 30; 6HR MAX TEMP: 40;  
 
SISSETON N/A 34 25 69 N21 29.69S WCI 22  
ABERDEEN FAIR 37 22 54 N16 29.73F  
6HR MIN TEMP: 30; 6HR MAX TEMP: 37;  
 
MITCHELL FAIR 44 29 55 N15G21 29.73F  
PIERRE CLOUDY 40 28 62 MISG 29.72S  
6HR MIN TEMP: 30; 6HR MAX TEMP: 40;  
 
MOBRIDGE FAIR 48 26 42 N10 29.68F  
RAPID CITY PTSUNNY 45 32 60 E10 29.64F  
6HR MIN TEMP: 25; 6HR MAX TEMP: 46;  
 

 
 
***** SOME WEATHER IN NEARBY STATES *****  
 
CITY SKY/WX TMP DP RH WIND PRES REMARKS  
GLASGOW MT CLOUDY 50 25 37 E13G18 29.68S  
6HR MIN TEMP: 31; 6HR MAX TEMP: 50;  
 
GREAT FALLS MT CLOUDY 44 37 76 NW12 29.68S  
6HR MIN TEMP: 37; 6HR MAX TEMP: 44; 6HR PCP: 0.10;  
 
CHEYENNE WY PTSUNNY 43 37 79 E7 29.54F  
6HR MIN TEMP: 38; 6HR MAX TEMP: 43; 6HR PCP: 0.09;  
 
SCOTTSBLUFF NE LGT RAIN 47 40 76 W6 29.56F  
6HR MIN TEMP: 36; 6HR MAX TEMP: 48; 6HR PCP: 0.01;  
 
OMAHA NE FAIR 48 33 56 SW9 29.74F  
6HR MIN TEMP: 36; 6HR MAX TEMP: 50;  
 
DES MOINES IA CLOUDY 45 32 60 W15 29.70F  
6HR MIN TEMP: 37; 6HR MAX TEMP: 45; 6HR PCP: TRACE;  
 
DAVENPORT IA CLOUDY 41 35 79 W22 29.66R  
6HR MIN TEMP: 37; 6HR MAX TEMP: 42; 6HR PCP: TRACE;  
 
CHICAGO IL CLOUDY 46 37 71 W17G29 29.60R  
6HR MIN TEMP: 44; 6HR MAX TEMP: 52; 6HR PCP: 0.01;  
 
EAU CLAIRE WI CLOUDY 34 28 79 W12 29.53R  
6HR MIN TEMP: 32; 6HR MAX TEMP: 34;  
 
LA CROSSE WI CLOUDY 43 34 70 W12 29.55R  
6HR MIN TEMP: 37; 6HR MAX TEMP: 43; 6HR PCP: TRACE;  
 

 
 
***** SOME NATIONAL WEATHER *****  
 
CITY SKY/WX TMP DP RH WIND PRES REMARKS  
LA GUARDIA NY CLOUDY 68 57 68 S8 29.90S  
6HR MIN TEMP: 59; 6HR MAX TEMP: 69;  
 
CLICK HERE TO GO TO PREVIOUS BULLETINS.

The Nexlab ND Page
The Nexlab MN Page Main Text Page